Content
SEND FEEDBACK

Daily
Averages
Monthly
Summary
United States of America

EAGLE MOUNTAIN LAKE, TEXAS


Home > North America > United States > Texas
Elevation: 760 feet     Latitude: 32 53N     Longitude: 097 27W

WEATHER
 
SELECT A DAY
Number of Records: 184,636;   Date Range: 1/1/95 - 9/29/14
 
SHARE

PRINT THIS DATA

[ ← Previous Day ]
WEATHER ALMANAC - JANUARY 31, 2013
[ Next Day → ]
[ °C ]   °F
Weather ElementAverageHighLow
Temperature49.5 °F66.9 °F (2:53 pm)32 °F (6:53 am)
Dewpoint23.7 °F30 °F (9:53 pm)19.9 °F (2:53 pm)
Humidity41 %64 % (6:53 am)17 % (2:53 pm)
Barometer30.17 in30.33 in (11:53 pm)30.08 in (3:53 pm)
Wind Speed7.6 mph19.6 mph (9:53 pm)
Wind Gust27.6 mph (9:53 pm)
Weather ElementAverage
Visibility10 mi
Wind DirectionSSE (163.9 °)

Weather ElementTotal
Precipitation---
Heating Degree Days15.6 (Base 65)
Averaged from 23 records on January 31, 2013
WEATHER CONDITIONS BREAKOUT
WIND DIRECTION BREAKOUT
WEATHER BY HOUR - JANUARY 31, 2013
[ °C ]   °F
Local TimeTemperatureDewpointHumidityBarometerVisibilityWind DirectionWind SpeedGust SpeedPrecipitationEventsConditions
1:53 AM35.1 °F21.9 °F59 %30.14 in10.0 miSW (220°)3.5 mphClear
2:53 AM36.0 °F21.9 °F57 %30.13 in10.0 miSSW (210°)3.5 mphClear
3:53 AM36.0 °F21.0 °F55 %30.14 in10.0 miWSW (250°)3.5 mphClear
4:53 AM35.1 °F21.0 °F57 %30.13 in10.0 miSW (230°)4.6 mphClear
5:53 AM34.0 °F21.0 °F59 %30.14 in10.0 miCalmClear
6:53 AM32.0 °F21.0 °F64 %30.15 in10.0 miCalmClear
7:53 AM33.1 °F21.0 °F61 %30.18 in10.0 miCalmClear
8:53 AM45.0 °F25.0 °F46 %30.17 in10.0 miCalmClear
9:53 AM52.0 °F28.0 °F40 %30.18 in10.0 miSouth (180°)8.1 mphClear
10:53 AM57.9 °F21.9 °F25 %30.19 in10.0 miSouth (190°)8.1 mph17.3 mphClear
11:53 AM62.1 °F21.9 °F21 %30.18 in10.0 miSSW (200°)12.7 mph17.3 mphClear
12:53 PM64.0 °F23.0 °F21 %30.15 in10.0 miSouth (190°)8.1 mphClear
1:53 PM66.0 °F21.0 °F18 %30.10 in10.0 miSSW (210°)13.8 mph19.6 mphClear
2:53 PM66.9 °F19.9 °F17 %30.09 in10.0 miSW (230°)16.1 mphClear
3:53 PM66.9 °F19.9 °F17 %30.08 in10.0 miWest (270°)13.8 mph20.7 mphClear
4:53 PM64.9 °F21.9 °F19 %30.10 in10.0 miWest (270°)6.9 mph16.1 mphClear
5:53 PM62.1 °F24.1 °F23 %30.14 in10.0 miWest (280°)3.5 mphClear
6:53 PM52.0 °F28.0 °F40 %30.18 in10.0 miCalmClear
7:53 PM50.0 °F28.9 °F44 %30.21 in10.0 miNNW (340°)5.8 mphClear
8:53 PM54.0 °F27.0 °F35 %30.23 in10.0 miNorth (360°)12.7 mphClear
9:53 PM48.9 °F30.0 °F48 %30.28 in10.0 miNE (40°)19.6 mph27.6 mphClear
10:53 PM44.1 °F28.9 °F55 %30.31 in10.0 miNE (50°)15.0 mph21.9 mphClear
11:53 PM39.9 °F28.0 °F63 %30.33 in10.0 miNE (50°)16.1 mph25.3 mphClear
Hourly data recorded from KAFW, located miles away from Eagle Mountain Lake, Texas







STORIES FROM OUR PARTNERS